Location: Alsip
(41.6689°N, 87.7387°W)
Time: 01:49:52
(UTC+00:00)

ISS - Visible Passes

Search period start: 01 August 2021 00:00
Search period end: 11 August 2021 00:00
Orbit: 419 x 421 km, 51.6° (Epoch: 31 July)

Date Brightness Start Highest point End Pass type
(mag) Time Alt. Az. Time Alt. Az. Time Alt. Az.
01 Aug -3.4 01:50:10 10° NW 01:53:31 57° NNE 01:56:37 11° ESE visible
01 Aug -1.5 03:27:42 10° W 03:29:35 17° WSW 03:29:35 17° WSW visible
02 Aug -2.4 02:39:53 10° WNW 02:42:51 29° SW 02:44:05 22° S visible
03 Aug -3.2 01:52:20 10° WNW 01:55:37 50° SW 01:58:39 12° SE visible
04 Aug -0.9 02:44:20 10° WSW 02:44:37 10° SW 02:44:54 10° SW visible
05 Aug -1.4 01:55:09 10° W 01:57:27 17° SW 01:59:45 10° S visible
